Weather Roundup
Issued by NWS Corpus Christi, TX

Home | Current Version | Previous Version | Text Only | Print | Product List | Glossary On
Versions: 1 2 3 4 5 6 7 8 9 10 11 12 13 14 15 16 17 18 19 20 21 22 23 24 25 26 27 28 29 30 31 32 33 34 35 36 37 38 39 40 41 42 43 44 45 46 47 48 49 50
460
ASUS44 KCRP 240510
HRRCRP

SOUTH TEXAS REGIONAL WEATHER ROUNDUP
NATIONAL WEATHER SERVICE CORPUS CHRISTI TX
1200 AM CDT WED AUG 24 2016


TXZ229>244-240600-
...CORPUS CHRISTI AREA OBSERVATIONS...

CITY           SKY/WX    TMP DP  RH WIND       PRES   REMARKS
CORPUS CHRISTI CLEAR     82  77  84 SE9       30.11R HX  90
NAS CORPUS CHR CLEAR     83  79  88 SE12      30.11R HX  94
ROCKPORT       PTCLDY    84  75  74 SE9       30.11R HX  92
KINGSVILLE NAS PTCLDY    80  78  94 SE9       30.10R
ALICE          CLEAR     78  76  93 SE8       30.10R
FALFURRIAS     CLEAR     81  75  82 SE8       30.10R
$$

...VICTORIA AREA OBSERVATIONS...

CITY           SKY/WX    TMP DP  RH WIND       PRES   REMARKS
VICTORIA       CLEAR     77  76  96 SE8       30.13S
BEEVILLE       FAIR      77  77 100 SE6       30.11S
PLEASANTON     CLEAR     78  72  79 SE9       30.12R
SAN ANTONIO    CLEAR     79  70  74 SE15      30.13R
$$

...LAREDO AREA OBSERVATIONS...

CITY           SKY/WX    TMP DP  RH WIND       PRES   REMARKS
LAREDO         CLEAR     84  72  67 SE14      30.07R
COTULLA        PTCLDY    82  71  69 SE12      30.09R
DEL RIO        CLEAR     80  65  59 E10       30.05R
MCALLEN        CLEAR     84  75  74 SE10      30.10R HX  92
HEBBRONVILLE   CLEAR     79  73  82 SE7       30.11S
$$

...OTHER TEXAS OBSERVATIONS...

CITY           SKY/WX    TMP DP  RH WIND       PRES   REMARKS
BROWNSVILLE    CLEAR     81  77  88 SE5       30.10S
HOUSTON        PTCLDY    81  77  88 S6        30.13S
COL. STATION   CLEAR     78  74  87 S6        30.13R
AUSTIN         CLEAR     77  72  84 S7        30.12R
WACO           CLEAR     82  73  74 S15       30.10R
FORT WORTH     CLEAR     83  72  69 S14       30.07S
WICHITA FALLS  CLOUDY    81  66  60 S16       30.03R
LUBBOCK        CLOUDY    72  64  76 SE10      30.09R
EL PASO        CLOUDY    68  62  81 SE7       30.12S
$$

...MARINE OBSERVATIONS...

STATION/POSITION TIME  SKY/WX   TEMP    WIND        PRES    VSBY  WAVE   SWELL
                                AIR SEA DIR/SP/G                  HT/PER HT/PER
                 (UTC)          (F)     (DEG/KT/KT) (MB)    (MI)  (FT/S) (FT/S)
PORT ARANSAS     0500            84 87  150/ 14/ 16 1019.7S
BUOY 90 E PORT A 0450            86 86  130/ 10/ 12 1020.2R         2/ 6   2/ 6
BUOY 45 SE BAFFI 0450            85 86  150/ 14/ 16 1019.1R         2/ 6   2/ 6
BUOY 200 E PT IS 0450            86 87  110/  8/ 10 1019.2S         2/ 5   2/ 5
BUOY 15 E GALVES 0450            85 86  160/ 10/ 12 1020.4S         2/ 6   2/ 6
$$




USA.gov is the U.S. government's official web portal to all federal, state and local government web resources and services.